• In Kazakhstan
  • List of Countries
  • For 7 days
  • Water Temperature
  • Satellite Maps
  • Weather Map
  • News
  • Weather Widgets
  • user-avatar
    Login

    Hourly Weather Carson City

    Today, 22 November, Wednesday

    Time Temperature Precipitation Wind Pressure Humidity
    00:00 +11°C° 0 mm 1 mps 645 mmHg 78%
    01:00 +10°C° 0 mm 2 mps 645 mmHg 78%
    02:00 +10°C° 0 mm 2 mps 644 mmHg 78%
    03:00 +10°C° 0 mm 2 mps 644 mmHg 78%
    04:00 +10°C° 0 mm 1 mps 644 mmHg 80%
    05:00 +10°C° 0 mm 1 mps 644 mmHg 78%
    06:00 +9°C° 0 mm 2 mps 644 mmHg 76%
    07:00 +9°C° 0 mm 2 mps 645 mmHg 75%
    08:00 +13°C° 0 mm 2 mps 645 mmHg 67%
    09:00 +15°C° 0 mm 1 mps 646 mmHg 59%
    10:00 +19°C° 0 mm 1 mps 647 mmHg 51%
    11:00 +19°C° 0 mm 2 mps 647 mmHg 47%
    12:00 +20°C° 0 mm 2 mps 647 mmHg 43%
    13:00 +21°C° 0 mm 2 mps 647 mmHg 39%
    14:00 +20°C° 0 mm 2 mps 646 mmHg 43%
    15:00 +19°C° 0 mm 2 mps 646 mmHg 48%
    16:00 +19°C° 0 mm 1 mps 645 mmHg 52%
    17:00 +18°C° 0 mm 1 mps 645 mmHg 54%
    18:00 +16°C° 0 mm 1 mps 645 mmHg 56%
    19:00 +15°C° 0 mm 2 mps 645 mmHg 58%
    20:00 +14°C° 0 mm 2 mps 645 mmHg 59%
    21:00 +14°C° 0 mm 2 mps 645 mmHg 59%
    22:00 +13°C° 0 mm 2 mps 645 mmHg 59%
    23:00 +13°C° 0 mm 2 mps 645 mmHg 58%

    Tomorrow, 23 November, Thursday

    Time Temperature Precipitation Wind Pressure Humidity
    00:00 +13°C° 0 mm 2 mps 644 mmHg 58%
    01:00 +13°C° 0 mm 2 mps 644 mmHg 57%
    02:00 +13°C° 0 mm 2 mps 644 mmHg 57%
    03:00 +12°C° 0 mm 2 mps 644 mmHg 56%
    04:00 +12°C° 0 mm 2 mps 643 mmHg 56%
    05:00 +12°C° 0 mm 2 mps 643 mmHg 57%
    06:00 +10°C° 0 mm 2 mps 643 mmHg 58%
    07:00 +10°C° 0 mm 2 mps 643 mmHg 58%
    08:00 +13°C° 0 mm 2 mps 644 mmHg 53%
    09:00 +15°C° 0 mm 2 mps 645 mmHg 47%
    10:00 +18°C° 0 mm 2 mps 645 mmHg 41%
    11:00 +18°C° 0 mm 3 mps 645 mmHg 39%
    12:00 +19°C° 0 mm 4 mps 645 mmHg 36%
    13:00 +20°C° 0 mm 5 mps 645 mmHg 34%
    14:00 +19°C° 0 mm 4 mps 644 mmHg 38%
    15:00 +18°C° 0 mm 3 mps 644 mmHg 43%
    16:00 +17°C° 0 mm 3 mps 643 mmHg 47%
    17:00 +16°C° 0 mm 2 mps 643 mmHg 51%
    18:00 +15°C° 0 mm 2 mps 643 mmHg 55%
    19:00 +13°C° 0 mm 2 mps 643 mmHg 59%
    20:00 +13°C° 0 mm 2 mps 643 mmHg 62%
    21:00 +12°C° 0 mm 2 mps 642 mmHg 64%
    22:00 +12°C° 0 mm 2 mps 642 mmHg 67%
    23:00 +10°C° 0 mm 2 mps 642 mmHg 69%

    Day after tomorrow, 24 November, Friday

    Time Temperature Precipitation Wind Pressure Humidity
    00:00 +10°C° 0 mm 2 mps 642 mmHg 71%
    01:00 +10°C° 0 mm 2 mps 641 mmHg 74%
    02:00 +9°C° 0 mm 2 mps 641 mmHg 76%
    03:00 +9°C° 0 mm 2 mps 641 mmHg 78%
    04:00 +9°C° 0 mm 2 mps 641 mmHg 80%
    05:00 +8°C° 0 mm 2 mps 641 mmHg 81%
    06:00 +8°C° 0 mm 2 mps 641 mmHg 83%
    07:00 +8°C° 0 mm 2 mps 641 mmHg 84%
    08:00 +10°C° 0 mm 2 mps 641 mmHg 73%
    09:00 +13°C° 0 mm 2 mps 642 mmHg 62%
    10:00 +14°C° 0 mm 2 mps 643 mmHg 51%
    11:00 +16°C° 0 mm 3 mps 643 mmHg 45%
    12:00 +17°C° 0 mm 3 mps 643 mmHg 38%
    13:00 +18°C° 0 mm 3 mps 642 mmHg 31%
    14:00 +17°C° 0 mm 3 mps 642 mmHg 36%
    15:00 +16°C° 0 mm 2 mps 641 mmHg 40%
    16:00 +15°C° 0 mm 2 mps 641 mmHg 44%
    17:00 +14°C° 0 mm 2 mps 641 mmHg 48%
    18:00 +13°C° 0 mm 2 mps 641 mmHg 51%
    19:00 +10°C° 0 mm 2 mps 640 mmHg 54%
    20:00 +12°C° 0 mm 2 mps 640 mmHg 51%
    21:00 +12°C° 0 mm 2 mps 641 mmHg 47%
    22:00 +12°C° 0 mm 2 mps 641 mmHg 44%
    23:00 +12°C° 0 mm 2 mps 641 mmHg 44%

    25 November, Saturday

    Time Temperature Precipitation Wind Pressure Humidity
    00:00 +12°C° 0 mm 2 mps 640 mmHg 45%
    01:00 +12°C° 0 mm 2 mps 640 mmHg 45%
    02:00 +11°C° 0 mm 1 mps 640 mmHg 48%
    03:00 +11°C° 0 mm 1 mps 639 mmHg 51%
    04:00 +10°C° 0 mm 1 mps 639 mmHg 54%
    05:00 +10°C° 0 mm 1 mps 639 mmHg 55%
    06:00 +9°C° 0 mm 2 mps 639 mmHg 55%
    07:00 +9°C° 0 mm 2 mps 639 mmHg 55%
    08:00 +11°C° 0 mm 3 mps 639 mmHg 51%
    09:00 +13°C° 0 mm 4 mps 640 mmHg 47%
    10:00 +15°C° 0 mm 5 mps 640 mmHg 43%
    11:00 +16°C° 0 mm 7 mps 640 mmHg 41%
    12:00 +17°C° 0 mm 9 mps 640 mmHg 40%
    13:00 +17°C° 0 mm 10 mps 640 mmHg 39%
    14:00 +16°C° 0 mm 10 mps 640 mmHg 41%
    15:00 +15°C° 0 mm 9 mps 639 mmHg 44%
    16:00 +13°C° 0 mm 8 mps 639 mmHg 47%
    17:00 +13°C° 0 mm 8 mps 639 mmHg 48%
    18:00 +12°C° 0 mm 7 mps 639 mmHg 49%
    19:00 +11°C° 0 mm 7 mps 639 mmHg 51%
    20:00 +11°C° 0 mm 7 mps 639 mmHg 53%
    21:00 +11°C° 0 mm 7 mps 639 mmHg 55%
    22:00 +10°C° 0 mm 7 mps 639 mmHg 58%
    23:00 +10°C° 0.1 mm 8 mps 638 mmHg 59%

    26 November, Sunday

    Time Temperature Precipitation Wind Pressure Humidity
    00:00 +10°C° 0.1 mm 8 mps 638 mmHg 61%
    01:00 +8°C° 0.1 mm 9 mps 638 mmHg 62%
    02:00 +9°C° 0.2 mm 8 mps 637 mmHg 65%
    03:00 +9°C° 0.2 mm 8 mps 637 mmHg 67%
    04:00 +8°C° 0.2 mm 7 mps 637 mmHg 70%
    05:00 +8°C° 0.4 mm 7 mps 637 mmHg 71%
    06:00 +8°C° 0.4 mm 7 mps 637 mmHg 72%
    07:00 +8°C° 0.4 mm 7 mps 637 mmHg 73%
    08:00 +8°C° 0.7 mm 9 mps 637 mmHg 71%
    09:00 +9°C° 0.7 mm 10 mps 638 mmHg 69%
    10:00 +9°C° 0.7 mm 11 mps 638 mmHg 67%
    11:00 +9°C° 1.1 mm 12 mps 637 mmHg 68%
    12:00 +9°C° 1.1 mm 12 mps 637 mmHg 68%
    13:00 +8°C° 1.1 mm 12 mps 637 mmHg 69%
    14:00 +8°C° 0.6 mm 12 mps 636 mmHg 70%
    15:00 +7°C° 0.6 mm 12 mps 636 mmHg 70%
    16:00 +5°C° 0.6 mm 12 mps 635 mmHg 71%
    17:00 +4°C° 0.6 mm 12 mps 636 mmHg 71%
    18:00 +3°C° 0.6 mm 12 mps 636 mmHg 71%
    19:00 +2°C° 0.6 mm 12 mps 636 mmHg 71%
    20:00 -1°C° 0.8 mm 11 mps 637 mmHg 71%
    21:00 -2°C° 0.8 mm 11 mps 638 mmHg 72%
    22:00 -3°C° 0.8 mm 10 mps 638 mmHg 73%
    23:00 -4°C° 0.1 mm 8 mps 639 mmHg 73%

    27 November, Monday

    Time Temperature Precipitation Wind Pressure Humidity
    00:00 -3°C° 0.1 mm 7 mps 640 mmHg 74%
    01:00 -4°C° 0.1 mm 6 mps 640 mmHg 74%
    02:00 -4°C° 0 mm 5 mps 641 mmHg 75%
    03:00 -3°C° 0 mm 4 mps 641 mmHg 75%
    04:00 -2°C° 0 mm 3 mps 642 mmHg 76%
    05:00 -2°C° 0 mm 3 mps 642 mmHg 75%
    06:00 -4°C° 0 mm 3 mps 642 mmHg 74%
    07:00 -3°C° 0 mm 2 mps 642 mmHg 74%
    08:00 -1°C° 0 mm 2 mps 643 mmHg 66%
    09:00 +2°C° 0 mm 2 mps 644 mmHg 58%
    10:00 +5°C° 0 mm 1 mps 644 mmHg 51%
    11:00 +5°C° 0 mm 1 mps 644 mmHg 48%
    12:00 +6°C° 0 mm 1 mps 644 mmHg 46%
    13:00 +6°C° 0 mm 1 mps 643 mmHg 44%
    14:00 +6°C° 0 mm 1 mps 643 mmHg 47%
    15:00 +5°C° 0 mm 2 mps 643 mmHg 50%
    16:00 +4°C° 0 mm 2 mps 643 mmHg 52%
    17:00 +3°C° 0 mm 2 mps 643 mmHg 55%
    18:00 +2°C° 0 mm 2 mps 644 mmHg 58%
    19:00 +2°C° 0 mm 1 mps 644 mmHg 61%
    20:00 +2°C° 0 mm 1 mps 644 mmHg 62%
    21:00 +2°C° 0 mm 1 mps 644 mmHg 63%
    22:00 +2°C° 0 mm 1 mps 644 mmHg 64%
    23:00 +2°C° 0 mm 1 mps 644 mmHg 65%
    Show more